7 * 24
多渠道服务支持
STARLINK-32726是美国太空探索技术公司SpaceX于2024年12月29日发射的星链(Starlink)互联网卫星,属于第二代星链星座的部署成员。星链项目旨在构建全球低轨卫星互联网星座,为全球缺少传统基础设施的偏远地区提供高速、低延迟的宽带互联网服务。该星配备增强型相控阵天线与激光星间链路,依托氪离子推进系统实现轨道机动,可支持百兆以上下载速率,助力星链实现全球完整覆盖,是SpaceX加速推进第二代星座组网的重要组成部分。
美国
(US)
| 数据来源 | 国际轨道数据 |
| 星历时间: | 2026-06-13T20:43:02+0800 21小时前 查看轨道信息 |
| 半长轴: | 6853.359km |
| 偏心率: | 0.0001272 |
| 轨道倾角: | 53.158° |
| 近地点辐角 | 92.602° |
| 升交点赤经 | 250.017° |
| 平近点角 | 267.512° |
| 近地点: | 474.35km |
| 远地点: | 476.094km |
| 周期: | 94.105分钟 |
| 每日圈数: | 15.30198 |